{"data":{"norad_id":68509,"intl_designator":"2026-068B","name":"STARLINK-36292","alt_names":[],"object_type":"PAYLOAD","status":"ACTIVE","operator":null,"country":"US","launch_date":"2026-03-30","launch_site_code":"AFETR","launch_vehicle":null,"mission":null,"orbit_class":"UNKNOWN","rcs_meters":null,"size_class":null,"mass_kg":null,"dimensions":null,"purposes":["comms"],"wikipedia_slug":null,"has_3d_model":false,"image_url":null,"decayed_at":null,"tle_current":{"epoch":"2026-09-19T15:58:38.619264Z","epoch_age_seconds":119918,"freshness":"FRESH","line1":"1 68509U 26068B   26262.66572476  .00018298  00000+0  55093-3 0  9993","line2":"2 68509  53.1599 303.2906 0001229  92.5677 267.5467 15.34425267 26717","mean_motion":15.34425267,"eccentricity":0.0001229,"inclination_deg":53.1599,"raan_deg":303.2906,"arg_perigee_deg":92.5677,"mean_anomaly_deg":267.5467,"bstar":0.00055093,"rev_number":2671,"period_min":93.846212713597,"perigee_km":461.78741235286,"apogee_km":463.46887242486,"semimajor_km":6840.7651423889,"source":"CELESTRAK","updated_at":"2026-09-20T09:00:43.900468Z"}}}